Overview Statistics Trail Chart Weather Telemetry Raw packets
 

This is the latest recevied weather packets stored in our database for station/object KO4ZGL-13. If no packets are shown the sender has not sent any weather packets the latest 10 day(s).

<< 64 65 66 67 68 69 70 >>
Time Temp. Humidity Pressure Rain* Wind** Luminosity Snow
1788192724 31.67° C 76% 1021 hPa 0 mm - 728 W/m² -
1788192423 32.22° C 73% 1021 hPa 0 mm - 755 W/m² -
1788192118 32.22° C 75% 1021.2 hPa 0 mm - 784 W/m² -
1788191818 32.22° C 76% 1021.2 hPa 0 mm - 745 W/m² -
1788191514 32.22° C 75% 1020.9 hPa 0 mm - 762 W/m² -
1788191209 31.67° C 76% 1021 hPa 0 mm - 793 W/m² -
1788190904 31.67° C 77% 1020.9 hPa 0 mm - 786 W/m² -
1788190603 31.67° C 75% 1020.8 hPa 0 mm - 796 W/m² -
1788190300 31.11° C 78% 1020.8 hPa 0 mm - 795 W/m² -
1788189995 31.11° C 81% 1020.7 hPa 0 mm - 812 W/m² -
1788189691 30.56° C 81% 1020.8 hPa 0 mm - 619 W/m² -
1788189391 30° C 85% 1020.7 hPa 0 mm - 811 W/m² -
1788189085 29.44° C 84% 1021 hPa 0 mm - 243 W/m² -
1788188780 30° C 82% 1020.9 hPa 0 mm - 98 W/m² -
1788188476 30.56° C 83% 1020.9 hPa 0 mm - 162 W/m² -
1788188170 29.44° C 82% 1020.9 hPa 0 mm - 488 W/m² -
1788187866 30° C 82% 1020.8 hPa 0 mm - 556 W/m² -
1788187562 30° C 84% 1020.7 hPa 0 mm - 323 W/m² -
1788187257 30.56° C 85% 1020.6 hPa 0 mm - 658 W/m² -
1788186951 30° C 86% 1020.7 hPa 0 mm - 535 W/m² -
1788186647 29.44° C 86% 1020.7 hPa 0 mm - 606 W/m² -
1788186343 29.44° C 87% 1020.8 hPa 0 mm - 462 W/m² -
1788186044 28.89° C 91% 1020.5 hPa 0 mm - 553 W/m² -
1788185743 28.33° C 95% 1020.4 hPa 0 mm - 406 W/m² -
1788185438 27.22° C 96% 1020.5 hPa 0 mm - 553 W/m² -

* Rain latest hour (hover to see other rain measurements)
** Current wind speed in m/s (hover to see current wind gust speed)